Location: Kenockee Observatory
(43.0173°N, 82.7297°W)
Time: 15:40:17
(UTC-04:00)

Daily predictions for brighter satellites

Satellite Brightness Start Highest point End
(mag) Time Altitude Azimuth Time Altitude Azimuth Time Altitude Azimuth
Cosmos 2237 Rocket 3.8 20:41:16 10° ESE 20:43:48 13° E 20:46:19 10° ENE
Cosmos 2219 Rocket 3.0 20:39:42 10° SSE 20:44:28 29° ESE 20:49:14 10° NE
Cosmos 2322 Rocket 4.0 20:39:36 10° SW 20:44:53 38° WNW 20:50:11 10° N
Cosmos 2074 Rocket 4.0 20:38:44 10° S 20:45:01 79° E 20:51:19 10° N
Lacrosse 5 4.3 20:42:06 10° WNW 20:45:41 19° NNW 20:49:16 10° NNE
ERS-2 2.3 20:42:07 10° SSE 20:45:42 55° ENE 20:49:18 10° N
BREEZE-M DEB (TANK) 3.5 20:40:24 10° WNW 20:46:41 49° NNE 20:49:18 10° E
NOSS 2-1 (E) 3.8 20:45:49 10° S 20:49:08 35° ESE 20:52:45 10° NE
Cosmos 2278 Rocket 3.6 20:46:15 10° N 20:50:39 22° NE 20:55:02 10° E
ATLAS CENTAUR R/B 2.8 20:49:44 10° SE 20:51:37 14° ESE 20:53:32 10° E
Cosmos 1726 4.4 20:52:38 10° SW 20:56:00 31° WNW 20:59:23 10° NNW
Cosmos 1666 Rocket 4.0 20:52:50 10° N 20:57:10 45° ENE 21:01:27 10° SSE
USA 186 1.2 20:56:13 10° SSE 20:58:22 45° ENE 21:00:33 10° N
Resurs 1-3 3.9 20:55:34 10° SE 20:59:47 49° ENE 21:04:02 10° N
OAO 2 Rocket 4.3 20:55:56 10° WSW 21:00:35 33° S 21:04:57 11° ESE
NOSS 3-3 (A) 4.3 20:55:23 10° S 21:00:55 40° ESE 21:06:56 10° NE
NOSS 3-3 (C) 4.3 20:55:30 10° S 21:01:01 40° ESE 21:07:00 10° NE
H-2A R/B 3.8 20:59:08 10° E 21:01:44 14° ENE 21:04:18 10° NNE
Cosmos 494 Rocket 4.4 21:00:34 10° NNW 21:05:44 67° WSW 21:10:55 10° S
YAOGAN 6 2.6 21:03:17 10° SSE 21:06:49 66° ENE 21:10:27 10° N
Cosmos 1809 Rocket 4.4 21:05:03 10° S 21:11:10 74° E 21:17:22 10° NNE
USA 267 4.4 21:07:45 10° E 21:11:54 18° ESE 21:16:02 10° SSE
Sich 1 2.9 21:08:04 10° N 21:12:21 73° E 21:16:36 10° SSE
In-Cosmos 22 Rocket 4.3 21:07:17 10° NNW 21:12:48 76° W 21:18:08 10° S
Nadezhda 3 Rocket 4.0 21:07:16 10° N 21:13:33 71° E 21:19:53 10° SSE
Cosmos 1340 2.6 21:11:41 10° S 21:15:27 85° E 21:19:16 10° N
Cosmos 1151 Rocket 4.0 21:13:26 11° SE 21:16:49 26° E 21:20:21 10° NNE
Cosmos 2251 Rocket 3.6 21:11:35 10° NNW 21:17:00 86° ENE 21:22:22 10° SSE
Cosmos 1939 Rocket 2.8 21:17:21 10° SSE 21:21:13 87° WSW 21:25:08 10° NNW
SJ-6B 4.3 21:18:25 10° SSW 21:22:11 38° W 21:25:57 10° NNW
Envisat 4.0 21:20:47 10° S 21:25:39 47° W 21:30:35 10° NNW
Cosmos 1825 3.4 21:23:56 10° NNE 21:27:04 24° ENE 21:28:24 20° ESE
Meteor 2-3 Rocket 3.7 21:23:30 10° N 21:29:05 67° ENE 21:34:38 10° SSE
Meteor 2-14 Rocket 4.4 21:24:35 10° S 21:30:39 79° E 21:36:48 10° N
Cosmos 1633 Rocket 3.0 21:26:48 10° N 21:31:10 87° E 21:35:31 10° S
SL-16 R/B 3.9 21:33:18 13° E 21:33:18 13° E 21:35:01 10° ENE
Cosmos 2098 Rocket 4.4 21:31:01 19° ESE 21:32:28 22° E 21:35:42 10° NE
Cosmos 1869 4.5 21:34:42 22° ESE 21:35:30 24° E 21:38:45 10° NE
Cosmos 2228 Rocket 3.4 21:32:02 11° SSE 21:36:02 44° E 21:40:13 10° NNE
SL-8 R/B 4.4 21:34:42 10° SSW 21:38:57 32° SE 21:41:34 19° E
SL-24 R/B - RUBIN 2 4.1 21:34:54 10° NW 21:39:10 54° WSW 21:42:34 15° SSE
Meteor 2-16 Rocket 4.4 21:33:25 10° S 21:39:32 76° E 21:45:40 10° NNE
Cosmos 1515 Rocket 3.7 21:37:19 11° SSE 21:41:31 51° E 21:45:51 10° NNE
Thor Agena Rocket 4.4 21:39:14 10° N 21:44:18 53° WNW 21:49:25 10° SW
ARGOS 3.5 21:44:34 23° SE 21:47:34 46° ENE 21:52:40 10° N
Helios 1A 4.4 21:49:42 20° E 21:50:27 21° ENE 21:53:38 10° NNE
BREEZE-M DEB (TANK) 2.6 21:46:58 10° WNW 21:50:27 45° NNE 21:51:02 35° ENE
GEOS 3 Rocket 4.2 21:45:41 10° NE 21:50:30 34° ESE 21:55:13 10° S
SL-08 RB Rocket 4.4 21:52:57 29° ESE 21:54:23 37° ENE 21:58:31 10° N
Resurs 01 Rocket 2.8 21:53:34 10° S 21:57:46 41° W 22:01:59 10° NNW
Cosmos 1980 3.7 21:53:30 10° S 21:59:06 63° ESE 22:04:43 10° NNE
Meteor 1-27 4.4 21:53:21 10° SSW 21:59:06 76° W 22:04:48 10° N
Cosmos 1727 Rocket 4.3 21:56:25 10° N 22:02:20 46° ENE 22:04:57 30° SE
Cosmos 1328 Rocket 4.0 21:58:23 10° SSW 22:02:45 63° W 22:07:10 10° N
BREEZE-M DEB (TANK) 4.0 21:56:12 10° W 22:02:58 36° NNW 22:05:12 14° NE
Cosmos 2333 Rocket 2.4 21:59:41 10° SSW 22:05:21 76° WNW 22:11:02 10° NNE
Cosmos 1959 Rocket 4.4 22:00:08 13° S 22:05:34 66° E 22:11:38 10° NNE
Spot 2 Rocket 4.4 22:03:49 10° S 22:08:44 48° W 22:13:40 10° NNW
Cosmos 2341 Rocket 4.4 22:03:40 10° SSW 22:09:59 64° W 22:16:17 10° N
COSMOS 2428 4.0 22:05:22 10° SW 22:10:47 42° WNW 22:16:14 10° NNE
Cosmos 1470 Rocket 3.9 22:07:55 10° NNW 22:12:16 65° W 22:14:51 24° S
Meteor 2-10 Rocket 3.9 22:11:14 31° SSE 22:13:46 53° E 22:19:25 10° NNE
ATLAS 2AS CENTAUR R/B 3.0 22:06:03 10° NW 22:13:58 75° WSW 22:18:17 27° SSE
Cosmos 1455 3.7 22:10:34 10° SW 22:14:07 36° WNW 22:17:43 10° N
Cosmos 1844 Rocket 4.3 22:12:45 10° NW 22:17:34 29° WSW 22:22:22 10° SSW
Cosmos 2218 Rocket 4.0 22:11:56 12° S 22:17:51 83° E 22:24:17 10° N
Cosmos 1862 4.3 22:15:04 10° N 22:18:24 33° ENE 22:18:24 33° ENE
SL-08 R/B 4.5 22:15:09 23° S 22:19:16 68° E 22:25:38 10° NNE
Terra 3.4 22:21:55 21° ENE 22:22:02 21° ENE 22:25:32 10° NNE
Cosmos 1408 3.1 22:20:45 10° NNW 22:24:20 54° W 22:25:16 41° SW
Cosmos 2237 Rocket 2.1 22:21:24 10° SSW 22:27:01 85° WNW 22:32:41 10° NNE
Cosmos 2219 Rocket 3.4 22:22:48 10° SW 22:28:11 43° WNW 22:33:35 10° NNE
ATLAS CENTAUR R/B 2.0 22:26:32 10° SW 22:30:06 48° NW 22:33:51 10° NNE
Lacrosse 5 4.2 22:26:54 10° NNW 22:30:22 18° N 22:33:50 10° NE
SPOT 5 3.1 22:30:51 46° E 22:31:05 47° ENE 22:35:25 10° N
USA 81 4.0 22:26:35 10° N 22:31:51 67° E 22:32:58 52° SE
SPOT 1/Viking Rocket 3.9 22:31:21 44° E 22:32:08 48° ENE 22:37:09 10° N
Cosmos 2366 rocket 4.0 22:27:19 17° S 22:32:11 86° W 22:38:31 10° N
Cosmos 2278 Rocket 2.5 22:29:35 10° NNW 22:35:12 64° WSW 22:37:23 37° S
Genesis I 4.1 22:31:35 10° NW 22:35:28 42° WSW 22:35:57 40° SW
MetOp-A 4.3 22:33:31 34° S 22:35:50 68° WSW 22:41:12 10° NNW
NOSS 0 Rocket 4.3 22:30:56 10° SW 22:37:02 63° WNW 22:43:14 10° NNE
TRAILBLAZER 4.5 22:35:44 36° SSW 22:37:34 81° ESE 22:42:16 10° NE
Cosmos 405 Rocket 4.1 22:41:02 28° NE 22:41:02 28° NE 22:43:08 10° NNE
H-2A R/B 2.0 22:39:07 48° S 22:40:32 79° WSW 22:45:33 10° NNW
NOSS 3-4 (A) 3.9 22:37:16 10° NNW 22:44:15 67° NE 22:46:43 43° ESE
NOSS 3-4 (C) 3.9 22:37:22 10° NNW 22:44:21 66° NE 22:46:49 43° ESE
ATLAS 5 CENTAUR R/B 4.3 22:42:45 10° N 22:46:33 18° NNE 22:49:40 13° ENE
Cosmos 407 Rocket 3.3 22:42:22 10° NNW 22:47:31 79° ENE 22:48:01 71° SE
ERS-1 Rocket 3.1 22:50:18 52° SSW 22:51:23 68° WSW 22:56:24 10° NNW
Cosmos 1371 Rocket 4.3 22:50:10 21° SSW 22:53:44 68° WNW 22:59:05 10° NNE
USA 267 3.1 22:49:06 10° NE 22:55:38 71° SE 23:02:09 10° SW
Cosmos 1707 Rocket 4.3 22:57:03 44° NNE 22:57:03 44° NNE 23:00:07 10° NNE
Cosmos 614 Rocket 4.3 22:51:47 10° N 22:56:51 51° ENE 22:56:51 51° ENE
Cosmos 1825 4.2 22:59:33 10° NW 23:02:30 22° W 23:03:17 20° WSW
Cosmos 1869 Rocket 3.8 22:58:43 10° NNW 23:02:44 67° WNW 23:02:44 67° WNW
Cosmos 676 Rocket 4.0 22:59:55 10° NNW 23:05:05 70° ENE 23:05:05 70° ENE
SL-19 R/B 4.1 23:09:46 77° SSE 23:10:13 89° WSW 23:15:50 10° NNW
Cosmos 2344 3.5 23:10:53 54° SSE 23:12:10 60° ESE 23:20:13 10° NE
CARTOSAT-1 4.4 23:14:50 45° N 23:14:50 45° N 23:17:58 10° N
Cosmos 2056 Rocket 4.1 23:13:06 31° SW 23:15:31 56° WNW 23:20:51 10° NNE
Helios 1B rocket 3.4 23:11:30 10° N 23:14:23 43° N 23:14:23 43° N
SL-16 R/B 2.1 23:15:05 72° SW 23:15:40 85° WNW 23:21:23 10° NNE
Cosmos 1733 Rocket 4.4 23:12:16 10° N 23:14:56 31° NNE 23:14:56 31° NNE
Cosmos 1452 Rocket 4.3 23:18:16 40° NE 23:18:16 40° NE 23:21:43 10° NNE
Helios 1A 4.4 23:26:20 33° W 23:26:20 33° W 23:29:40 10° NNW
USA 234 3.7 23:27:52 44° ENE 23:29:30 55° NNE 23:35:51 10° NW
Cosmos 1934 Rocket 4.0 23:31:58 65° ENE 23:31:58 65° ENE 23:37:24 10° NNE
Cosmos 1943 Rocket 3.7 23:27:42 10° N 23:32:07 25° NE 23:32:07 25° NE
CZ-2C R/B 3.8 23:39:38 43° N 23:39:38 43° N 23:42:59 10° N
Cosmos 2297 4.5 23:39:49 10° NW 23:44:54 43° W 23:44:54 43° W
Cosmos 1140 Rocket 4.2 23:42:18 10° NNW 23:46:26 50° WNW 23:46:26 50° WNW
SeaSat 1 4.3 23:55:37 22° NE 23:55:37 22° NE 23:58:54 10° N
